Moose Lake, MN

5:05 AM CDT on June 25, 2017 (GMT -0500)
Moose Lake-Carlton County

Weather History for KMZH - February, 2013

Change the Weather History Date:

Sunday, February 10, 2013

  Actual Average Record
Temperature  
Mean Temperature 28 °F -  
Max Temperature 32 °F 24 °F 50 °F (1977)
Min Temperature 24 °F 0 °F -30 °F (1972)
Degree Days  
Heating Degree Days 37    
Moisture  
Dew Point 22 °F    
Average Humidity 78    
Maximum Humidity 93    
Minimum Humidity 74    
Precipitation  
Precipitation 0.12 in - - ()
Sea Level Pressure  
Sea Level Pressure 29.58 in    
Wind  
Wind Speed 4 mph (NE)    
Max Wind Speed 13 mph    
Max Gust Speed 24 mph    
Visibility 2 miles    
Events Snow    
Averages and records for this station are not official NWS values.
T = Trace of Precipitation, MM = Missing Value Source: NWS Daily Summary

Daily Weather History Graph

Daily Weather History Graph

Search for Another Location

Airport or City:

Trip Planner

Search our weather history database for the weather conditions in past years. The results will help you decide how hot, cold, wet, or windy it might be!

Date:

Astronomy

Feb. 10, 2013 Rise Set
Actual Time 7:21 AM CST 5:29 PM CST
Civil Twilight 6:50 AM CST 6:01 PM CST
Nautical Twilight 6:15 AM CST 6:36 PM CST
Astronomical Twilight 5:40 AM CST 7:11 PM CST
Moon 7:07 AM CST (2/10) 6:27 PM CST (2/10)
Length of Visible Light 11h 10m
Length of Day
10h 07m
New Moon, 0% of the Moon is Illuminated
Feb 10
New Moon
Feb 17
First Quarter
Feb 25
Full
Mar 4
Last Quarter
Mar 11
New

Hourly Weather History & Observations

Time (CST) Temp. Windchill Dew Point Humidity Pressure Visibility Wind Dir Wind Speed Gust Speed Precip Events Conditions
12:12 AM 28.4 °F - 23.0 °F 80% 29.92 in 3.0 mi Calm Calm - N/A   Haze
12:32 AM 28.4 °F - 23.0 °F 80% 29.91 in 2.5 mi Calm Calm - N/A   Haze
12:52 AM 28.4 °F - 23.0 °F 80% 29.91 in 2.0 mi Calm Calm - N/A   Haze
1:12 AM 28.4 °F - 23.0 °F 80% 29.91 in 1.8 mi Calm Calm - N/A   Haze
1:32 AM 28.4 °F - 23.0 °F 80% 29.91 in 2.0 mi Calm Calm - N/A   Haze
1:52 AM 28.4 °F - 23.0 °F 80% 29.91 in 2.0 mi Calm Calm - N/A   Haze
2:32 AM 26.6 °F - 23.0 °F 86% 29.90 in 1.5 mi Calm Calm - N/A   Overcast
2:52 AM 26.6 °F - 21.2 °F 80% 29.89 in 1.2 mi Calm Calm - N/A   Haze
3:12 AM 26.6 °F - 21.2 °F 80% 29.87 in 1.8 mi Calm Calm - N/A   Haze
3:32 AM 26.6 °F - 21.2 °F 80% 29.86 in 1.8 mi Calm Calm - N/A   Haze
3:52 AM 26.6 °F - 21.2 °F 80% 29.86 in 2.0 mi Calm Calm - N/A   Haze
4:12 AM 26.6 °F - 21.2 °F 80% 29.84 in 2.0 mi Calm Calm - N/A   Haze
4:32 AM 26.6 °F - 21.2 °F 80% 29.84 in 2.0 mi Calm Calm - N/A   Haze
4:52 AM 26.6 °F - 21.2 °F 80% 29.84 in 2.0 mi Calm Calm - N/A   Overcast
5:12 AM 26.6 °F - 21.2 °F 80% 29.84 in 2.0 mi Calm Calm - N/A   Haze
5:32 AM 26.6 °F - 21.2 °F 80% 29.81 in 2.5 mi Calm Calm - N/A   Overcast
5:52 AM 26.6 °F - 21.2 °F 80% 29.80 in 2.0 mi Calm Calm - N/A   Haze
6:12 AM 26.6 °F 19.1 °F 21.2 °F 80% 29.80 in 2.0 mi ESE 6.9 mph - N/A   Overcast
6:32 AM 26.6 °F - 21.2 °F 80% 29.78 in 2.5 mi Calm Calm - N/A   Haze
6:52 AM 26.6 °F - 21.2 °F 80% 29.74 in 3.0 mi Calm Calm - N/A   Haze
7:12 AM 26.6 °F - 21.2 °F 80% 29.76 in 2.5 mi Calm Calm - N/A Snow Light Snow
7:32 AM 26.6 °F - 21.2 °F 80% 29.74 in 3.0 mi Calm Calm - N/A   Haze
7:52 AM 26.6 °F - 21.2 °F 80% 29.74 in 2.5 mi Calm Calm - N/A   Haze
8:12 AM 26.6 °F - 21.2 °F 80% 29.74 in 3.0 mi Calm Calm - N/A   Haze
8:32 AM 26.6 °F - 21.2 °F 80% 29.73 in 3.0 mi Calm Calm - N/A   Haze
8:52 AM 26.6 °F 21.2 °F 19.4 °F 74% 29.71 in 4.0 mi East 4.6 mph - N/A   Haze
9:12 AM 26.6 °F 18.2 °F 19.4 °F 74% 29.71 in 4.0 mi East 8.1 mph - N/A   Haze
9:32 AM 26.6 °F - 19.4 °F 74% 29.69 in 4.0 mi Calm Calm - N/A   Haze
9:52 AM 26.6 °F 15.7 °F 19.4 °F 74% 29.68 in 4.0 mi ENE 12.7 mph 17.3 mph N/A   Haze
10:12 AM 26.6 °F - 19.4 °F 74% 29.66 in 4.0 mi Calm Calm - N/A   Haze
10:32 AM 26.6 °F 16.2 °F 19.4 °F 74% 29.64 in 4.0 mi ENE 11.5 mph 17.3 mph N/A   Haze
10:52 AM 26.6 °F 20.0 °F 19.4 °F 74% 29.63 in 4.0 mi ENE 5.8 mph 18.4 mph N/A   Haze
11:12 AM 26.6 °F 17.5 °F 19.4 °F 74% 29.63 in 4.0 mi ENE 9.2 mph 17.3 mph N/A   Haze
11:32 AM 26.6 °F 16.2 °F 19.4 °F 74% 29.60 in 2.0 mi ENE 11.5 mph 18.4 mph N/A Snow Light Snow
11:52 AM 26.6 °F 16.8 °F 19.4 °F 74% 29.57 in 0.5 mi ENE 10.4 mph 16.1 mph N/A Snow Light Snow
12:12 PM 26.6 °F 17.5 °F 19.4 °F 74% 29.56 in 0.8 mi ENE 9.2 mph 17.3 mph N/A Snow Light Snow
12:32 PM 26.6 °F 16.8 °F 19.4 °F 74% 29.52 in 0.5 mi NE 10.4 mph 18.4 mph 0.01 in Snow Snow
12:52 PM 26.6 °F 16.8 °F 19.4 °F 74% 29.48 in 1.0 mi NE 10.4 mph 24.2 mph 0.01 in Snow Light Snow
1:12 PM 26.6 °F 16.2 °F 19.4 °F 74% 29.48 in 0.8 mi NE 11.5 mph 19.6 mph N/A Snow Light Snow
1:32 PM 26.6 °F 16.8 °F 19.4 °F 74% 29.47 in 0.8 mi ENE 10.4 mph 20.7 mph 0.01 in Snow Light Snow
1:52 PM 26.6 °F 15.7 °F 21.2 °F 80% 29.45 in 0.2 mi ENE 12.7 mph 17.3 mph 0.02 in Snow Heavy Snow
2:12 PM 26.6 °F 18.2 °F 21.2 °F 80% 29.45 in 0.2 mi ENE 8.1 mph 17.3 mph N/A Snow Heavy Snow
2:32 PM 26.6 °F 16.8 °F 21.2 °F 80% 29.45 in 0.2 mi ENE 10.4 mph 17.3 mph N/A Snow Heavy Snow
2:52 PM 26.6 °F 18.2 °F 21.2 °F 80% 29.44 in 0.2 mi ENE 8.1 mph 18.4 mph N/A Snow Heavy Snow
3:12 PM 28.4 °F 19.7 °F 21.2 °F 74% 29.42 in 0.2 mi ENE 9.2 mph 20.7 mph N/A Snow Heavy Snow
3:32 PM 28.4 °F 18.5 °F 23.0 °F 80% 29.41 in 0.2 mi ENE 11.5 mph 19.6 mph N/A Snow Snow
3:52 PM 28.4 °F 18.0 °F 23.0 °F 80% 29.40 in 0.5 mi ENE 12.7 mph 24.2 mph N/A Snow Snow
4:12 PM 28.4 °F 18.5 °F 23.0 °F 80% 29.40 in 0.5 mi ENE 11.5 mph 20.7 mph 0.01 in Snow Light Snow
4:32 PM 28.4 °F 18.0 °F 23.0 °F 80% 29.39 in 0.5 mi ENE 12.7 mph 19.6 mph 0.01 in Snow Light Snow
4:52 PM 30.2 °F 22.6 °F 23.0 °F 75% 29.38 in 1.2 mi ENE 8.1 mph 21.9 mph 0.02 in Snow Light Snow
5:12 PM 30.2 °F 21.3 °F 23.0 °F 75% 29.38 in 1.5 mi ENE 10.4 mph 17.3 mph N/A Snow Light Snow
5:32 PM 30.2 °F 20.8 °F 23.0 °F 75% 29.37 in 2.0 mi ENE 11.5 mph 19.6 mph N/A Snow Light Snow
5:52 PM 30.2 °F 22.6 °F 23.0 °F 75% 29.37 in 3.0 mi ENE 8.1 mph 17.3 mph 0.01 in Snow Light Snow
6:12 PM 30.2 °F 21.3 °F 23.0 °F 75% 29.36 in 3.0 mi NE 10.4 mph 17.3 mph N/A Snow Light Snow
6:32 PM 30.2 °F 20.8 °F 23.0 °F 75% 29.35 in 4.0 mi ENE 11.5 mph 17.3 mph N/A Snow Light Snow
6:52 PM 30.2 °F 22.6 °F 24.8 °F 80% 29.35 in 4.0 mi NE 8.1 mph 18.4 mph N/A Snow Light Snow
7:12 PM 30.2 °F 22.6 °F 24.8 °F 80% 29.35 in 3.0 mi NE 8.1 mph 18.4 mph N/A Snow Light Snow
7:32 PM 30.2 °F 21.9 °F 24.8 °F 80% 29.34 in 3.0 mi NE 9.2 mph 18.4 mph 0.01 in Snow Light Snow
7:52 PM 32.0 °F 23.6 °F 24.8 °F 75% 29.33 in 3.0 mi NE 10.4 mph 16.1 mph 0.01 in Snow Light Snow
8:12 PM 32.0 °F 23.0 °F 24.8 °F 75% 29.33 in 5.0 mi NE 11.5 mph 17.3 mph 0.01 in Snow Light Snow
8:32 PM 32.0 °F 23.6 °F 26.6 °F 80% 29.33 in 4.0 mi NE 10.4 mph - 0.02 in Snow Light Snow
8:52 PM 32.0 °F 24.2 °F 26.6 °F 80% 29.33 in 3.0 mi NE 9.2 mph - 0.02 in Snow Light Snow
9:13 PM 32.0 °F 24.2 °F 26.6 °F 80% 29.33 in 4.0 mi NE 9.2 mph - N/A Snow Light Snow
9:32 PM 32.0 °F 24.2 °F 26.6 °F 80% 29.32 in 4.0 mi NE 9.2 mph - N/A Snow Light Snow
9:52 PM 32.0 °F 23.6 °F 26.6 °F 80% 29.32 in 4.0 mi NE 10.4 mph 16.1 mph N/A Snow Light Snow
10:11 PM 24.8 °F 16.9 °F 23.0 °F 93% 29.51 in 2.0 mi North 6.9 mph - 0.02 in Snow Light Snow
10:32 PM 32.0 °F 22.5 °F 26.6 °F 80% 29.32 in 5.0 mi NNE 12.7 mph 18.4 mph N/A   Haze
10:52 PM 32.0 °F 23.6 °F 26.6 °F 80% 29.31 in 3.0 mi NNE 10.4 mph - N/A Snow Light Snow
11:12 PM 32.0 °F 24.2 °F 26.6 °F 80% 29.31 in 2.5 mi NNE 9.2 mph - N/A Snow Light Snow
11:33 PM 24.8 °F 20.5 °F 21.2 °F 86% 29.43 in 1.2 mi North 3.5 mph - 0.01 in Snow Heavy Snow
11:52 PM 32.0 °F 25.6 °F 26.6 °F 80% 29.32 in 4.0 mi North 6.9 mph - 0.01 in Snow Light Snow